Year,Month,Day,Hour,Minute,Value (Times are PST for temperature in C)
2010,11,12,00,00,4.90
2010,11,12,00,01,4.90
2010,11,12,00,02,4.80
2010,11,12,00,03,4.80
2010,11,12,00,04,4.60
2010,11,12,00,05,4.40
2010,11,12,00,06,4.30
2010,11,12,00,07,4.20
2010,11,12,00,08,4.10
2010,11,12,00,09,4.10
2010,11,12,00,10,4.00
2010,11,12,00,11,4.00
2010,11,12,00,12,4.00
2010,11,12,00,13,4.00
2010,11,12,00,14,3.90
2010,11,12,00,15,4.00
2010,11,12,00,16,4.10
2010,11,12,00,17,4.10
2010,11,12,00,18,4.20
2010,11,12,00,19,4.30
2010,11,12,00,20,4.50
2010,11,12,00,21,4.60
2010,11,12,00,22,4.60
2010,11,12,00,23,4.70
2010,11,12,00,24,4.80
2010,11,12,00,25,4.90
2010,11,12,00,26,4.90
2010,11,12,00,27,5.10
2010,11,12,00,28,5.10
2010,11,12,00,29,5.30
2010,11,12,00,30,5.40
2010,11,12,00,31,5.50
2010,11,12,00,32,5.60
2010,11,12,00,33,5.60
2010,11,12,00,34,5.60
2010,11,12,00,35,5.60
2010,11,12,00,36,5.70
2010,11,12,00,37,5.70
2010,11,12,00,38,5.70
2010,11,12,00,39,5.70
2010,11,12,00,40,5.70
2010,11,12,00,41,5.70
2010,11,12,00,42,5.70
2010,11,12,00,43,5.70
2010,11,12,00,44,5.70
2010,11,12,00,45,5.70
2010,11,12,00,46,5.70
2010,11,12,00,47,5.70
2010,11,12,00,48,5.70
2010,11,12,00,49,5.70
2010,11,12,00,50,5.70
2010,11,12,00,51,5.70
2010,11,12,00,52,5.70
2010,11,12,00,53,5.80
2010,11,12,00,54,5.80
2010,11,12,00,55,5.80
2010,11,12,00,56,5.90
2010,11,12,00,57,5.90
2010,11,12,00,58,5.90
2010,11,12,00,59,5.90
2010,11,12,01,00,6.00
2010,11,12,01,01,6.00
2010,11,12,01,02,6.00
2010,11,12,01,03,6.00
2010,11,12,01,04,5.90
2010,11,12,01,05,5.90
2010,11,12,01,06,5.80
2010,11,12,01,07,5.60
2010,11,12,01,08,5.20
2010,11,12,01,09,4.70
2010,11,12,01,10,4.40
2010,11,12,01,11,4.20
2010,11,12,01,12,4.10
2010,11,12,01,13,4.10
2010,11,12,01,14,4.10
2010,11,12,01,15,4.20
2010,11,12,01,16,4.20
2010,11,12,01,17,4.20
2010,11,12,01,18,4.20
2010,11,12,01,19,4.20
2010,11,12,01,20,4.20
2010,11,12,01,21,4.20
2010,11,12,01,22,4.20
2010,11,12,01,23,4.20
2010,11,12,01,24,4.20
2010,11,12,01,25,4.20
2010,11,12,01,26,4.10
2010,11,12,01,27,4.10
2010,11,12,01,28,4.00
2010,11,12,01,29,4.00
2010,11,12,01,30,4.00
2010,11,12,01,31,3.90
2010,11,12,01,32,3.90
2010,11,12,01,33,3.90
2010,11,12,01,34,3.90
2010,11,12,01,35,4.00
2010,11,12,01,36,4.00
2010,11,12,01,37,4.10
2010,11,12,01,38,4.10
2010,11,12,01,39,4.20
2010,11,12,01,40,4.20
2010,11,12,01,41,4.20
2010,11,12,01,42,4.20
2010,11,12,01,43,4.10
2010,11,12,01,44,4.10
2010,11,12,01,45,4.20
2010,11,12,01,46,4.20
2010,11,12,01,47,4.20
2010,11,12,01,48,4.30
2010,11,12,01,49,4.30
2010,11,12,01,50,4.40
2010,11,12,01,51,4.40
2010,11,12,01,52,4.50
2010,11,12,01,53,4.50
2010,11,12,01,54,4.50
2010,11,12,01,55,4.50
2010,11,12,01,56,4.40
2010,11,12,01,57,4.40
2010,11,12,01,58,4.40
2010,11,12,01,59,4.40
2010,11,12,02,00,4.40
2010,11,12,02,01,4.50
2010,11,12,02,02,4.60
2010,11,12,02,03,4.60
2010,11,12,02,04,4.60
2010,11,12,02,05,4.50
2010,11,12,02,06,4.40
2010,11,12,02,07,4.40
2010,11,12,02,08,4.30
2010,11,12,02,09,4.00
2010,11,12,02,10,3.90
2010,11,12,02,11,3.80
2010,11,12,02,12,3.70
2010,11,12,02,13,3.60
2010,11,12,02,14,3.50
2010,11,12,02,15,3.40
2010,11,12,02,16,3.40
2010,11,12,02,17,3.40
2010,11,12,02,18,3.30
2010,11,12,02,19,3.30
2010,11,12,02,20,3.30
2010,11,12,02,21,3.20
2010,11,12,02,22,3.20
2010,11,12,02,23,3.20
2010,11,12,02,24,3.20
2010,11,12,02,25,3.30
2010,11,12,02,26,3.30
2010,11,12,02,27,3.40
2010,11,12,02,28,3.50
2010,11,12,02,29,3.60
2010,11,12,02,30,3.80
2010,11,12,02,31,3.80
2010,11,12,02,32,3.70
2010,11,12,02,33,3.60
2010,11,12,02,34,3.40
2010,11,12,02,35,3.20
2010,11,12,02,36,3.00
2010,11,12,02,37,2.90
2010,11,12,02,38,2.90
2010,11,12,02,39,2.70
2010,11,12,02,40,2.70
2010,11,12,02,41,2.70
2010,11,12,02,42,2.70
2010,11,12,02,43,2.70
2010,11,12,02,44,2.70
2010,11,12,02,45,2.80
2010,11,12,02,46,2.80
2010,11,12,02,47,2.90
2010,11,12,02,48,2.90
2010,11,12,02,49,2.90
2010,11,12,02,50,2.90
2010,11,12,02,51,2.90
2010,11,12,02,52,2.90
2010,11,12,02,53,3.10
2010,11,12,02,54,3.00
2010,11,12,02,55,2.90
2010,11,12,02,56,2.70
2010,11,12,02,57,2.70
2010,11,12,02,58,2.60
2010,11,12,02,59,2.60
2010,11,12,03,00,2.50
2010,11,12,03,01,2.50
2010,11,12,03,02,2.50
2010,11,12,03,03,2.50
2010,11,12,03,04,2.50
2010,11,12,03,05,2.50
2010,11,12,03,06,2.60
2010,11,12,03,07,2.70
2010,11,12,03,08,2.70
2010,11,12,03,09,2.70
2010,11,12,03,10,2.80
2010,11,12,03,11,2.80
2010,11,12,03,12,2.90
2010,11,12,03,13,3.00
2010,11,12,03,14,3.10
2010,11,12,03,15,3.10
2010,11,12,03,16,3.20
2010,11,12,03,17,3.20
2010,11,12,03,18,3.20
2010,11,12,03,19,3.20
2010,11,12,03,20,3.20
2010,11,12,03,21,3.10
2010,11,12,03,22,3.20
2010,11,12,03,23,3.20
2010,11,12,03,24,3.20
2010,11,12,03,25,3.20
2010,11,12,03,26,3.20
2010,11,12,03,27,3.20
2010,11,12,03,28,3.20
2010,11,12,03,29,3.20
2010,11,12,03,30,3.20
2010,11,12,03,31,3.10
2010,11,12,03,32,3.10
2010,11,12,03,33,3.20
2010,11,12,03,34,3.20
2010,11,12,03,35,3.30
2010,11,12,03,36,3.40
2010,11,12,03,37,3.70
2010,11,12,03,38,3.80
2010,11,12,03,39,4.00
2010,11,12,03,40,4.20
2010,11,12,03,41,4.30
2010,11,12,03,42,4.40
2010,11,12,03,43,4.50
2010,11,12,03,44,4.50
2010,11,12,03,45,4.40
2010,11,12,03,46,4.10
2010,11,12,03,47,3.80
2010,11,12,03,48,3.50
2010,11,12,03,49,3.20
2010,11,12,03,50,3.00
2010,11,12,03,51,2.90
2010,11,12,03,52,2.80
2010,11,12,03,53,2.60
2010,11,12,03,54,2.50
2010,11,12,03,55,2.30
2010,11,12,03,56,2.20
2010,11,12,03,57,2.20
2010,11,12,03,58,2.10
2010,11,12,03,59,2.10
2010,11,12,04,00,2.10
2010,11,12,04,01,2.00
2010,11,12,04,02,2.00
2010,11,12,04,03,2.00
2010,11,12,04,04,2.00
2010,11,12,04,05,2.00
2010,11,12,04,06,2.00
2010,11,12,04,07,1.80
2010,11,12,04,08,1.80
2010,11,12,04,09,1.80
2010,11,12,04,10,1.90
2010,11,12,04,11,2.00
2010,11,12,04,12,2.20
2010,11,12,04,13,2.30
2010,11,12,04,14,2.40
2010,11,12,04,15,2.50
2010,11,12,04,16,2.60
2010,11,12,04,17,2.70
2010,11,12,04,18,2.70
2010,11,12,04,19,2.80
2010,11,12,04,20,2.80
2010,11,12,04,21,2.80
2010,11,12,04,22,2.70
2010,11,12,04,23,2.50
2010,11,12,04,24,2.30
2010,11,12,04,25,2.20
2010,11,12,04,26,2.20
2010,11,12,04,27,2.20
2010,11,12,04,28,2.20
2010,11,12,04,29,2.20
2010,11,12,04,30,2.20
2010,11,12,04,31,2.30
2010,11,12,04,32,2.40
2010,11,12,04,33,2.50
2010,11,12,04,34,2.50
2010,11,12,04,35,2.60
2010,11,12,04,36,2.70
2010,11,12,04,37,2.70
2010,11,12,04,38,2.70
2010,11,12,04,39,2.80
2010,11,12,04,40,2.90
2010,11,12,04,41,3.00
2010,11,12,04,42,3.10
2010,11,12,04,43,3.10
2010,11,12,04,44,3.00
2010,11,12,04,45,2.90
2010,11,12,04,46,2.90
2010,11,12,04,47,2.80
2010,11,12,04,48,2.80
2010,11,12,04,49,2.70
2010,11,12,04,50,2.70
2010,11,12,04,51,2.60
2010,11,12,04,52,2.50
2010,11,12,04,53,2.50
2010,11,12,04,54,2.40
2010,11,12,04,55,2.40
2010,11,12,04,56,2.30
2010,11,12,04,57,2.20
2010,11,12,04,58,2.20
2010,11,12,04,59,2.10
2010,11,12,05,00,2.10
2010,11,12,05,01,2.20
2010,11,12,05,02,2.20
2010,11,12,05,03,2.30
2010,11,12,05,04,2.30
2010,11,12,05,05,2.30
2010,11,12,05,06,2.30
2010,11,12,05,07,2.40
2010,11,12,05,08,2.40
2010,11,12,05,09,2.20
2010,11,12,05,10,2.00
2010,11,12,05,11,1.90
2010,11,12,05,12,1.90
2010,11,12,05,13,1.80
2010,11,12,05,14,1.80
2010,11,12,05,15,1.80
2010,11,12,05,16,1.80
2010,11,12,05,17,1.90
2010,11,12,05,18,2.00
2010,11,12,05,19,2.10
2010,11,12,05,20,2.10
2010,11,12,05,21,2.10
2010,11,12,05,22,2.10
2010,11,12,05,23,2.10
2010,11,12,05,24,2.10
2010,11,12,05,25,2.10
2010,11,12,05,26,2.20
2010,11,12,05,27,2.20
2010,11,12,05,28,2.20
2010,11,12,05,29,2.20
2010,11,12,05,30,2.30
2010,11,12,05,31,2.40
2010,11,12,05,32,2.50
2010,11,12,05,33,2.50
2010,11,12,05,34,2.60
2010,11,12,05,35,2.60
2010,11,12,05,36,2.60
2010,11,12,05,37,2.70
2010,11,12,05,38,2.70
2010,11,12,05,39,2.70
2010,11,12,05,40,2.80
2010,11,12,05,41,2.80
2010,11,12,05,42,2.90
2010,11,12,05,43,2.90
2010,11,12,05,44,2.90
2010,11,12,05,45,2.90
2010,11,12,05,46,2.90
2010,11,12,05,47,2.90
2010,11,12,05,48,2.80
2010,11,12,05,49,2.80
2010,11,12,05,50,2.80
2010,11,12,05,51,2.80
2010,11,12,05,52,2.70
2010,11,12,05,53,2.70
2010,11,12,05,54,2.80
2010,11,12,05,55,2.80
2010,11,12,05,56,2.80
2010,11,12,05,57,2.90
2010,11,12,05,58,2.90
2010,11,12,05,59,3.00
2010,11,12,06,00,3.10
2010,11,12,06,01,3.10
2010,11,12,06,02,3.20
2010,11,12,06,03,3.20
2010,11,12,06,04,3.20
2010,11,12,06,05,3.30
2010,11,12,06,06,3.30
2010,11,12,06,07,3.30
2010,11,12,06,08,3.30
2010,11,12,06,09,3.30
2010,11,12,06,10,3.30
2010,11,12,06,11,3.40
2010,11,12,06,12,3.40
2010,11,12,06,13,3.40
2010,11,12,06,14,3.20
2010,11,12,06,15,2.70
2010,11,12,06,16,2.30
2010,11,12,06,17,2.00
2010,11,12,06,18,1.80
2010,11,12,06,19,1.70
2010,11,12,06,20,1.60
2010,11,12,06,21,1.60
2010,11,12,06,22,1.50
2010,11,12,06,23,1.50
2010,11,12,06,24,1.50
2010,11,12,06,25,1.50
2010,11,12,06,26,1.40
2010,11,12,06,27,1.30
2010,11,12,06,28,1.20
2010,11,12,06,29,1.20
2010,11,12,06,30,1.30
2010,11,12,06,31,1.30
2010,11,12,06,32,1.30
2010,11,12,06,33,1.30
2010,11,12,06,34,1.40
2010,11,12,06,35,1.50
2010,11,12,06,36,1.50
2010,11,12,06,37,1.60
2010,11,12,06,38,1.70
2010,11,12,06,39,1.80
2010,11,12,06,40,1.80
2010,11,12,06,41,1.80
2010,11,12,06,42,1.80
2010,11,12,06,43,1.80
2010,11,12,06,44,1.80
2010,11,12,06,45,1.90
2010,11,12,06,46,1.90
2010,11,12,06,47,1.90
2010,11,12,06,48,2.00
2010,11,12,06,49,2.10
2010,11,12,06,50,2.10
2010,11,12,06,51,2.20
2010,11,12,06,52,2.20
2010,11,12,06,53,2.20
2010,11,12,06,54,2.20
2010,11,12,06,55,2.20
2010,11,12,06,56,2.20
2010,11,12,06,57,2.30
2010,11,12,06,58,2.40
2010,11,12,06,59,2.60
2010,11,12,07,00,2.70
2010,11,12,07,01,2.70
2010,11,12,07,02,2.70
2010,11,12,07,03,2.70
2010,11,12,07,04,2.70
2010,11,12,07,05,2.70
2010,11,12,07,06,2.70
2010,11,12,07,07,2.70
2010,11,12,07,08,2.70
2010,11,12,07,09,2.70
2010,11,12,07,10,2.70
2010,11,12,07,11,2.70
2010,11,12,07,12,2.70
2010,11,12,07,13,2.70
2010,11,12,07,14,2.70
2010,11,12,07,15,2.80
2010,11,12,07,16,2.80
2010,11,12,07,17,2.70
2010,11,12,07,18,2.60
2010,11,12,07,19,2.50
2010,11,12,07,20,2.40
2010,11,12,07,21,2.30
2010,11,12,07,22,2.20
2010,11,12,07,23,2.20
2010,11,12,07,24,2.20
2010,11,12,07,25,2.20
2010,11,12,07,26,2.30
2010,11,12,07,27,2.40
2010,11,12,07,28,2.50
2010,11,12,07,29,2.50
2010,11,12,07,30,2.60
2010,11,12,07,31,2.50
2010,11,12,07,32,2.20
2010,11,12,07,33,1.90
2010,11,12,07,34,1.60
2010,11,12,07,35,1.40
2010,11,12,07,36,1.30
2010,11,12,07,37,1.30
2010,11,12,07,38,1.30
2010,11,12,07,39,1.30
2010,11,12,07,40,1.30
2010,11,12,07,41,1.30
2010,11,12,07,42,1.30
2010,11,12,07,43,1.40
2010,11,12,07,44,1.50
2010,11,12,07,45,1.60
2010,11,12,07,46,1.60
2010,11,12,07,47,1.60
2010,11,12,07,48,1.70
2010,11,12,07,49,1.70
2010,11,12,07,50,1.70
2010,11,12,07,51,1.70
2010,11,12,07,52,1.80
2010,11,12,07,53,1.90
2010,11,12,07,54,2.00
2010,11,12,07,55,2.00
2010,11,12,07,56,2.10
2010,11,12,07,57,2.20
2010,11,12,07,58,2.30
2010,11,12,07,59,2.40
2010,11,12,08,00,2.50
2010,11,12,08,01,2.60
2010,11,12,08,02,2.60
2010,11,12,08,03,2.70
2010,11,12,08,04,2.70
2010,11,12,08,05,2.70
2010,11,12,08,06,2.70
2010,11,12,08,07,2.60
2010,11,12,08,08,2.60
2010,11,12,08,09,2.60
2010,11,12,08,10,2.60
2010,11,12,08,11,2.60
2010,11,12,08,12,2.60
2010,11,12,08,13,2.70
2010,11,12,08,14,2.70
2010,11,12,08,15,2.70
2010,11,12,08,16,2.70
2010,11,12,08,17,2.60
2010,11,12,08,18,2.50
2010,11,12,08,19,2.40
2010,11,12,08,20,2.40
2010,11,12,08,21,2.40
2010,11,12,08,22,2.40
2010,11,12,08,23,2.50
2010,11,12,08,24,2.50
2010,11,12,08,25,2.60
2010,11,12,08,26,2.70
2010,11,12,08,27,2.80
2010,11,12,08,28,2.90
2010,11,12,08,29,2.90
2010,11,12,08,30,3.10
2010,11,12,08,31,3.10
2010,11,12,08,32,3.10
2010,11,12,08,33,3.20
2010,11,12,08,34,3.20
2010,11,12,08,35,3.30
2010,11,12,08,36,3.30
2010,11,12,08,37,3.30
2010,11,12,08,38,3.30
2010,11,12,08,39,3.30
2010,11,12,08,40,3.20
2010,11,12,08,41,3.20
2010,11,12,08,42,3.30
2010,11,12,08,43,3.30
2010,11,12,08,44,3.30
2010,11,12,08,45,3.30
2010,11,12,08,46,3.30
2010,11,12,08,47,3.40
2010,11,12,08,48,3.40
2010,11,12,08,49,3.50
2010,11,12,08,50,3.50
2010,11,12,08,51,3.60
2010,11,12,08,52,3.60
2010,11,12,08,53,3.70
2010,11,12,08,54,3.80
2010,11,12,08,55,3.80
2010,11,12,08,56,3.90
2010,11,12,08,57,4.00
2010,11,12,08,58,4.10
2010,11,12,08,59,4.10
2010,11,12,09,00,4.20
2010,11,12,09,01,4.30
2010,11,12,09,02,4.30
2010,11,12,09,03,4.40
2010,11,12,09,04,4.50
2010,11,12,09,05,4.60
2010,11,12,09,06,4.60
2010,11,12,09,07,4.60
2010,11,12,09,08,4.60
2010,11,12,09,09,4.70
2010,11,12,09,10,4.70
2010,11,12,09,11,4.80
2010,11,12,09,12,4.90
2010,11,12,09,13,5.00
2010,11,12,09,14,5.10
2010,11,12,09,15,5.20
2010,11,12,09,16,5.30
2010,11,12,09,17,5.40
2010,11,12,09,18,5.40
2010,11,12,09,19,5.40
2010,11,12,09,20,5.40
2010,11,12,09,21,5.40
2010,11,12,09,22,5.40
2010,11,12,09,23,5.30
2010,11,12,09,24,5.30
2010,11,12,09,25,5.30
2010,11,12,09,26,5.30
2010,11,12,09,27,5.40
2010,11,12,09,28,5.40
2010,11,12,09,29,5.40
2010,11,12,09,30,5.50
2010,11,12,09,31,5.50
2010,11,12,09,32,5.60
2010,11,12,09,33,5.80
2010,11,12,09,34,5.90
2010,11,12,09,35,6.10
2010,11,12,09,36,6.20
2010,11,12,09,37,6.40
2010,11,12,09,38,6.60
2010,11,12,09,39,6.70
2010,11,12,09,40,6.80
2010,11,12,09,41,6.90
2010,11,12,09,42,7.00
2010,11,12,09,43,7.10
2010,11,12,09,44,7.20
2010,11,12,09,45,7.20
2010,11,12,09,46,7.20
2010,11,12,09,47,7.20
2010,11,12,09,48,7.30
2010,11,12,09,49,7.30
2010,11,12,09,50,7.30
2010,11,12,09,51,7.30
2010,11,12,09,52,7.40
2010,11,12,09,53,7.40
2010,11,12,09,54,7.30
2010,11,12,09,55,7.30
2010,11,12,09,56,7.30
2010,11,12,09,57,7.30
2010,11,12,09,58,7.30
2010,11,12,09,59,7.30
2010,11,12,10,00,7.40
2010,11,12,10,01,7.50
2010,11,12,10,02,7.60
2010,11,12,10,03,7.70
2010,11,12,10,04,7.70
2010,11,12,10,05,7.80
2010,11,12,10,06,7.80
2010,11,12,10,07,7.90
2010,11,12,10,08,7.90
2010,11,12,10,09,7.90
2010,11,12,10,10,8.00
2010,11,12,10,11,8.00
2010,11,12,10,12,8.00
2010,11,12,10,13,8.10
2010,11,12,10,14,8.10
2010,11,12,10,15,8.10
2010,11,12,10,16,8.10
2010,11,12,10,17,8.20
2010,11,12,10,18,8.20
2010,11,12,10,19,8.20
2010,11,12,10,20,8.30
2010,11,12,10,21,8.40
2010,11,12,10,22,8.40
2010,11,12,10,23,8.50
2010,11,12,10,24,8.50
2010,11,12,10,25,8.60
2010,11,12,10,26,8.60
2010,11,12,10,27,8.70
2010,11,12,10,28,8.70
2010,11,12,10,29,8.70
2010,11,12,10,30,8.80
2010,11,12,10,31,8.80
2010,11,12,10,32,8.90
2010,11,12,10,33,8.90
2010,11,12,10,34,8.90
2010,11,12,10,35,8.90
2010,11,12,10,36,9.00
2010,11,12,10,37,9.10
2010,11,12,10,38,9.20
2010,11,12,10,39,9.30
2010,11,12,10,40,9.40
2010,11,12,10,41,9.50
2010,11,12,10,42,9.60
2010,11,12,10,43,9.70
2010,11,12,10,44,9.70
2010,11,12,10,45,9.80
2010,11,12,10,46,9.90
2010,11,12,10,47,9.90
2010,11,12,10,48,9.90
2010,11,12,10,49,10.00
2010,11,12,10,50,10.10
2010,11,12,10,51,10.10
2010,11,12,10,52,10.20
2010,11,12,10,53,10.30
2010,11,12,10,54,10.30
2010,11,12,10,55,10.30
2010,11,12,10,56,10.40
2010,11,12,10,57,10.40
2010,11,12,10,58,10.40
2010,11,12,10,59,10.40
2010,11,12,11,00,10.40
2010,11,12,11,01,10.40
2010,11,12,11,02,10.50
2010,11,12,11,03,10.60
2010,11,12,11,04,10.60
2010,11,12,11,05,10.60
2010,11,12,11,06,10.60
2010,11,12,11,07,10.60
2010,11,12,11,08,10.60
2010,11,12,11,09,10.60
2010,11,12,11,10,10.60
2010,11,12,11,11,10.70
2010,11,12,11,12,10.70
2010,11,12,11,13,10.70
2010,11,12,11,14,10.80
2010,11,12,11,15,10.80
2010,11,12,11,16,10.90
2010,11,12,11,17,10.90
2010,11,12,11,18,10.90
2010,11,12,11,19,11.00
2010,11,12,11,20,11.10
2010,11,12,11,21,11.10
2010,11,12,11,22,11.10
2010,11,12,11,23,11.10
2010,11,12,11,24,11.10
2010,11,12,11,25,11.10
2010,11,12,11,26,11.10
2010,11,12,11,27,11.10
2010,11,12,11,28,11.10
2010,11,12,11,29,11.20
2010,11,12,11,30,11.20
2010,11,12,11,31,11.20
2010,11,12,11,32,11.20
2010,11,12,11,33,11.30
2010,11,12,11,34,11.30
2010,11,12,11,35,11.30
2010,11,12,11,36,11.40
2010,11,12,11,37,11.40
2010,11,12,11,38,11.50
2010,11,12,11,39,11.60
2010,11,12,11,40,11.40
2010,11,12,11,41,11.30
2010,11,12,11,42,11.30
2010,11,12,11,43,11.30
2010,11,12,11,44,11.30
2010,11,12,11,45,11.30
2010,11,12,11,46,11.30
2010,11,12,11,47,11.30
2010,11,12,11,48,11.20
2010,11,12,11,49,11.20
2010,11,12,11,50,11.20
2010,11,12,11,51,11.30
2010,11,12,11,52,11.40
2010,11,12,11,53,11.40
2010,11,12,11,54,11.40
2010,11,12,11,55,11.60
2010,11,12,11,56,11.60
2010,11,12,11,57,11.60
2010,11,12,11,58,11.60
2010,11,12,11,59,11.50
2010,11,12,12,00,11.40
2010,11,12,12,01,11.40
2010,11,12,12,02,11.40
2010,11,12,12,03,11.50
2010,11,12,12,04,11.60
2010,11,12,12,05,11.60
2010,11,12,12,06,11.60
2010,11,12,12,07,11.70
2010,11,12,12,08,11.80
2010,11,12,12,09,11.80
2010,11,12,12,10,11.80
2010,11,12,12,11,11.80
2010,11,12,12,12,11.90
2010,11,12,12,13,11.90
2010,11,12,12,14,12.00
2010,11,12,12,15,12.10
2010,11,12,12,16,12.10
2010,11,12,12,17,12.20
2010,11,12,12,18,12.30
2010,11,12,12,19,12.30
2010,11,12,12,20,12.40
2010,11,12,12,21,12.50
2010,11,12,12,22,12.60
2010,11,12,12,23,12.60
2010,11,12,12,24,12.50
2010,11,12,12,25,12.40
2010,11,12,12,26,12.30
2010,11,12,12,27,12.30
2010,11,12,12,28,12.20
2010,11,12,12,29,12.20
2010,11,12,12,30,12.10
2010,11,12,12,31,12.10
2010,11,12,12,32,12.00
2010,11,12,12,33,12.00
2010,11,12,12,34,12.00
2010,11,12,12,35,11.90
2010,11,12,12,36,11.90
2010,11,12,12,37,11.90
2010,11,12,12,38,11.80
2010,11,12,12,39,11.80
2010,11,12,12,40,11.80
2010,11,12,12,41,11.80
2010,11,12,12,42,11.80
2010,11,12,12,43,11.80
2010,11,12,12,44,11.80
2010,11,12,12,45,11.90
2010,11,12,12,46,11.90
2010,11,12,12,47,12.00
2010,11,12,12,48,12.00
2010,11,12,12,49,11.90
2010,11,12,12,50,11.90
2010,11,12,12,51,11.80
2010,11,12,12,52,11.80
2010,11,12,12,53,11.70
2010,11,12,12,54,11.70
2010,11,12,12,55,11.70
2010,11,12,12,56,11.70
2010,11,12,12,57,11.70
2010,11,12,12,58,11.70
2010,11,12,12,59,11.80
2010,11,12,13,00,11.70
2010,11,12,13,01,11.70
2010,11,12,13,02,11.70
2010,11,12,13,03,11.70
2010,11,12,13,04,11.70
2010,11,12,13,05,11.70
2010,11,12,13,06,11.70
2010,11,12,13,07,11.60
2010,11,12,13,08,11.60
2010,11,12,13,09,11.60
2010,11,12,13,10,11.50
2010,11,12,13,11,11.40
2010,11,12,13,12,11.40
2010,11,12,13,13,11.30
2010,11,12,13,14,11.20
2010,11,12,13,15,11.10
2010,11,12,13,16,11.00
2010,11,12,13,17,10.90
2010,11,12,13,18,10.90
2010,11,12,13,19,10.90
2010,11,12,13,20,10.90
2010,11,12,13,21,10.80
2010,11,12,13,22,10.80
2010,11,12,13,23,10.80
2010,11,12,13,24,10.80
2010,11,12,13,25,10.80
2010,11,12,13,26,10.70
2010,11,12,13,27,10.70
2010,11,12,13,28,10.70
2010,11,12,13,29,10.70
2010,11,12,13,30,10.60
2010,11,12,13,31,10.60
2010,11,12,13,32,10.60
2010,11,12,13,33,10.70
2010,11,12,13,34,10.70
2010,11,12,13,35,10.80
2010,11,12,13,36,10.90
2010,11,12,13,37,11.00
2010,11,12,13,38,11.10
2010,11,12,13,39,11.10
2010,11,12,13,40,11.10
2010,11,12,13,41,11.00
2010,11,12,13,42,10.90
2010,11,12,13,43,10.90
2010,11,12,13,44,10.90
2010,11,12,13,45,10.90
2010,11,12,13,46,10.90
2010,11,12,13,47,10.80
2010,11,12,13,48,10.70
2010,11,12,13,49,10.60
2010,11,12,13,50,10.60
2010,11,12,13,51,10.50
2010,11,12,13,52,10.40
2010,11,12,13,53,10.40
2010,11,12,13,54,10.40
2010,11,12,13,55,10.30
2010,11,12,13,56,10.30
2010,11,12,13,57,10.30
2010,11,12,13,58,10.30
2010,11,12,13,59,10.30
2010,11,12,14,00,10.20
2010,11,12,14,01,10.10
2010,11,12,14,02,10.10
2010,11,12,14,03,10.10
2010,11,12,14,04,10.10
2010,11,12,14,05,10.10
2010,11,12,14,06,10.10
2010,11,12,14,07,10.10
2010,11,12,14,08,10.10
2010,11,12,14,09,10.10
2010,11,12,14,10,10.00
2010,11,12,14,11,9.90
2010,11,12,14,12,9.90
2010,11,12,14,13,9.90
2010,11,12,14,14,9.80
2010,11,12,14,15,9.80
2010,11,12,14,16,9.80
2010,11,12,14,17,9.80
2010,11,12,14,18,9.80
2010,11,12,14,19,9.80
2010,11,12,14,20,9.80
2010,11,12,14,21,9.80
2010,11,12,14,22,9.80
2010,11,12,14,23,9.90
2010,11,12,14,24,9.90
2010,11,12,14,25,9.90
2010,11,12,14,26,9.90
2010,11,12,14,27,9.90
2010,11,12,14,28,9.90
2010,11,12,14,29,10.00
2010,11,12,14,30,9.90
2010,11,12,14,31,9.90
2010,11,12,14,32,9.90
2010,11,12,14,33,9.90
2010,11,12,14,34,9.90
2010,11,12,14,35,9.90
2010,11,12,14,36,9.90
2010,11,12,14,37,9.90
2010,11,12,14,38,9.90
2010,11,12,14,39,9.90
2010,11,12,14,40,9.90
2010,11,12,14,41,9.90
2010,11,12,14,42,10.00
2010,11,12,14,43,9.90
2010,11,12,14,44,9.90
2010,11,12,14,45,10.00
2010,11,12,14,46,10.10
2010,11,12,14,47,10.10
2010,11,12,14,48,10.10
2010,11,12,14,49,10.10
2010,11,12,14,50,10.10
2010,11,12,14,51,10.10
2010,11,12,14,52,10.10
2010,11,12,14,53,10.10
2010,11,12,14,54,10.10
2010,11,12,14,55,10.20
2010,11,12,14,56,10.20
2010,11,12,14,57,10.10
2010,11,12,14,58,10.10
2010,11,12,14,59,10.10
2010,11,12,15,00,10.10
2010,11,12,15,01,10.10
2010,11,12,15,02,10.10
2010,11,12,15,03,10.10
2010,11,12,15,04,10.10
2010,11,12,15,05,10.10
2010,11,12,15,06,10.20
2010,11,12,15,07,10.20
2010,11,12,15,08,10.30
2010,11,12,15,09,10.30
2010,11,12,15,10,10.30
2010,11,12,15,11,10.40
2010,11,12,15,12,10.40
2010,11,12,15,13,10.40
2010,11,12,15,14,10.40
2010,11,12,15,15,10.40
2010,11,12,15,16,10.40
2010,11,12,15,17,10.40
2010,11,12,15,18,10.30
2010,11,12,15,19,10.30
2010,11,12,15,20,10.30
2010,11,12,15,21,10.30
2010,11,12,15,22,10.30
2010,11,12,15,23,10.30
2010,11,12,15,24,10.30
2010,11,12,15,25,10.30
2010,11,12,15,26,10.20
2010,11,12,15,27,10.20
2010,11,12,15,28,10.20
2010,11,12,15,29,10.20
2010,11,12,15,30,10.20
2010,11,12,15,31,10.20
2010,11,12,15,32,10.10
2010,11,12,15,33,10.10
2010,11,12,15,34,10.10
2010,11,12,15,35,10.10
2010,11,12,15,36,10.10
2010,11,12,15,37,10.10
2010,11,12,15,38,10.00
2010,11,12,15,39,9.90
2010,11,12,15,40,9.90
2010,11,12,15,41,9.90
2010,11,12,15,42,9.80
2010,11,12,15,43,9.70
2010,11,12,15,44,9.70
2010,11,12,15,45,9.60
2010,11,12,15,46,9.50
2010,11,12,15,47,9.50
2010,11,12,15,48,9.50
2010,11,12,15,49,9.50
2010,11,12,15,50,9.40
2010,11,12,15,51,9.40
2010,11,12,15,52,9.40
2010,11,12,15,53,9.40
2010,11,12,15,54,9.30
2010,11,12,15,55,9.30
2010,11,12,15,56,9.30
2010,11,12,15,57,9.30
2010,11,12,15,58,9.30
2010,11,12,15,59,9.30
2010,11,12,16,00,9.30
2010,11,12,16,01,9.30
2010,11,12,16,02,9.30
2010,11,12,16,03,9.30
2010,11,12,16,04,9.30
2010,11,12,16,05,9.30
2010,11,12,16,06,9.30
2010,11,12,16,07,9.30
2010,11,12,16,08,9.30
2010,11,12,16,09,9.30
2010,11,12,16,10,9.30
2010,11,12,16,11,9.30
2010,11,12,16,12,9.30
2010,11,12,16,13,9.30
2010,11,12,16,14,9.30
2010,11,12,16,15,9.30
2010,11,12,16,16,9.30
2010,11,12,16,17,9.30
2010,11,12,16,18,9.20
2010,11,12,16,19,9.20
2010,11,12,16,20,9.20
2010,11,12,16,21,9.20
2010,11,12,16,22,9.20
2010,11,12,16,23,9.20
2010,11,12,16,24,9.20
2010,11,12,16,25,9.20
2010,11,12,16,26,9.20
2010,11,12,16,27,9.20
2010,11,12,16,28,9.20
2010,11,12,16,29,9.20
2010,11,12,16,30,9.20
2010,11,12,16,31,9.20
2010,11,12,16,32,9.10
2010,11,12,16,33,9.10
2010,11,12,16,34,9.10
2010,11,12,16,35,9.10
2010,11,12,16,36,9.10
2010,11,12,16,37,9.00
2010,11,12,16,38,9.00
2010,11,12,16,39,9.00
2010,11,12,16,40,8.90
2010,11,12,16,41,8.90
2010,11,12,16,42,8.90
2010,11,12,16,43,8.90
2010,11,12,16,44,8.80
2010,11,12,16,45,8.80
2010,11,12,16,46,8.80
2010,11,12,16,47,8.70
2010,11,12,16,48,8.70
2010,11,12,16,49,8.70
2010,11,12,16,50,8.70
2010,11,12,16,51,8.70
2010,11,12,16,52,8.70
2010,11,12,16,53,8.70
2010,11,12,16,54,8.70
2010,11,12,16,55,8.70
2010,11,12,16,56,8.70
2010,11,12,16,57,8.60
2010,11,12,16,58,8.60
2010,11,12,16,59,8.60
2010,11,12,17,00,8.60
2010,11,12,17,01,8.60
2010,11,12,17,02,8.60
2010,11,12,17,03,8.60
2010,11,12,17,04,8.60
2010,11,12,17,05,8.70
2010,11,12,17,06,8.70
2010,11,12,17,07,8.70
2010,11,12,17,08,8.70
2010,11,12,17,09,8.70
2010,11,12,17,10,8.70
2010,11,12,17,11,8.70
2010,11,12,17,12,8.70
2010,11,12,17,13,8.70
2010,11,12,17,14,8.70
2010,11,12,17,15,8.70
2010,11,12,17,16,8.70
2010,11,12,17,17,8.70
2010,11,12,17,18,8.70
2010,11,12,17,19,8.70
2010,11,12,17,20,8.70
2010,11,12,17,21,8.70
2010,11,12,17,22,8.70
2010,11,12,17,23,8.70
2010,11,12,17,24,8.70
2010,11,12,17,25,8.70
2010,11,12,17,26,8.70
2010,11,12,17,27,8.70
2010,11,12,17,28,8.70
2010,11,12,17,29,8.70
2010,11,12,17,30,8.70
2010,11,12,17,31,8.70
2010,11,12,17,32,8.60
2010,11,12,17,33,8.60
2010,11,12,17,34,8.60
2010,11,12,17,35,8.60
2010,11,12,17,36,8.50
2010,11,12,17,37,8.50
2010,11,12,17,38,8.40
2010,11,12,17,39,8.40
2010,11,12,17,40,8.30
2010,11,12,17,41,8.30
2010,11,12,17,42,8.20
2010,11,12,17,43,8.20
2010,11,12,17,44,8.20
2010,11,12,17,45,8.20
2010,11,12,17,46,8.10
2010,11,12,17,47,8.10
2010,11,12,17,48,8.10
2010,11,12,17,49,8.10
2010,11,12,17,50,8.10
2010,11,12,17,51,8.00
2010,11,12,17,52,8.00
2010,11,12,17,53,8.00
2010,11,12,17,54,8.00
2010,11,12,17,55,8.00